COSMOS 2251 DEB

Satellite information

Favourite Embed

Satellite Type and Status

DEBRISIN ORBIT

Key statistics

Satellite COSMOS 2251 DEB at a glance.

Uptime

11809

Days in orbit

Revolutions

≈ 14.0

Per day

Orbit

LEO

Low Earth Orbit

Inclination

73.9

Latest

Satellite identification and parameters

Extended collection of information and parameters for COSMOS 2251 DEB.

Object identification

Identified? True

Debris? True

Object name: COSMOS 2251 DEB

International designator: 1993-036NX

Object number (NORAD): 34325

Object ID (CCSDS): 34325

Country: COMMONWEALTH OF INDEPENDENT STATES (CIS)

Current information (Y/N): Y

RCS size: SMALL

Orbital parameters

Period: 102.566 minutes

Inclination: 73.8713 deg

SMA: 7258.221 km

Apoapsis: 1023.323 km

Periapsis: 736.848 km

RAAN: 296.6031 deg

Eccentricy: 0.01973448

Argument of periapsis: 324.1716 deg

Mean anomaly: 88.9296 deg

Mean motion: 14.0396896 rev/day

Mean motion (dot): 0.0000359 rev/day2

B* drag term: 0.001924432 1/REarth

Two-line elements (TLE)

Creation date: Oct. 15, 2025, 2:21 a.m.

Reference frame: TEME

Reference center: EARTH

Epoch: Oct. 14, 2025, 7:29 p.m. UTC

TLE line 0: 0 COSMOS 2251 DEB

TLE line 1: 1 34325U 93036NX 25287.81223740 .00003590 00000-0 19244-2 0 9998

TLE line 2: 2 34325 73.8713 296.6031 0197345 324.1716 88.9296 14.03968960846880

Live tracking on map

Real-time ground track for satellite COSMOS 2251 DEB.

In-orbit conjunctions

A list of the most updated potential collisions computed for object COSMOS 2251 DEB.

Target Orbit TCA Probability of collision Miss distance Type
CZ-6A DEB LEO 2024-11-27 13:17:58 0.0001326459 534.0 (m) DEBRIS
FENGYUN 1C DEB SSO 2024-11-14 22:21:28 0.000101894 566.0 (m) DEBRIS
PSLV DEB SSO 2024-10-25 00:24:52 0.0001619023 126.0 (m) DEBRIS
OSCAR 3 LEO 2024-06-01 08:55:15 0.0002454116 758.0 (m) PAYLOAD

Associated space launch

Military communications satellite. Destroyed in a collision with Iridium 33.

COSMOS 2251 DEB was lifted into orbit during the mission ‘Kosmos-3M | Strela-2M 51’, on board a Kosmos-3M space rocket.

The launch took place on June 16, 1993, 4:17 a.m. from 132/1 (132L).

For more information about the launch, click the button.

Launch to space Kosmos-3M | Strela-2M 51
Kosmos-3M | Strela-2M 51

Agency: N/A

Status: Launch Successful

Launch date: June 16, 1993, 4:17 a.m. UTC

Rocket: Kosmos-3M

Launch pad: 132/1 (132L)

Location: Plesetsk Cosmodrome, Russian Federation

...

Latest news about this satellite

There are no fresh news available about this satellite. Check back as we update our databases every day.


Newsletter sign-up

Weekly statistics, charts and insights to help you stay on top of the space industry.